Date Time,Air Temp,Sky Temp,Clarity,Light Level,Rain Sensor,Readings
2018-06-30 00:00:06,27.7,-1.7,29.3,0.0,2.3,111
2018-06-30 00:05:06,27.5,-1.9,29.4,0.0,2.3,112
2018-06-30 00:10:06,26.9,-2.0,28.9,0.0,2.3,111
2018-06-30 00:15:06,27.3,-1.9,29.3,0.0,2.3,112
2018-06-30 00:20:06,27.2,-2.1,29.3,0.0,2.3,111
2018-06-30 00:25:06,27.2,-2.3,29.5,0.0,2.3,112
2018-06-30 00:30:06,27.1,-2.4,29.6,0.0,2.3,111
2018-06-30 00:35:06,27.1,-2.4,29.6,0.0,2.3,112
2018-06-30 00:40:07,27.1,-2.4,29.5,0.0,2.3,111
2018-06-30 00:45:07,27.0,-2.2,29.3,0.0,2.3,112
2018-06-30 00:50:07,27.0,-2.2,29.2,0.0,2.3,112
2018-06-30 00:55:07,26.9,-2.0,28.9,0.0,2.3,111
2018-06-30 01:00:07,26.8,-2.1,29.0,0.0,2.3,112
2018-06-30 01:05:16,26.8,-2.2,29.0,0.0,2.3,111
2018-06-30 01:10:16,26.7,-2.5,29.1,0.0,2.3,112
2018-06-30 01:15:16,26.6,-2.6,29.2,0.0,2.3,112
2018-06-30 01:20:16,26.5,-3.1,29.6,0.0,2.3,112
2018-06-30 01:25:16,26.3,-3.6,29.9,0.0,2.4,111
2018-06-30 01:30:16,26.1,-4.0,30.1,0.0,2.3,112
2018-06-30 01:35:16,26.0,-4.2,30.2,0.0,2.3,113
2018-06-30 01:40:16,25.9,-4.5,30.4,0.0,2.3,112
2018-06-30 01:45:16,25.8,-4.5,30.3,0.0,2.3,112
2018-06-30 01:50:16,25.8,-4.6,30.4,0.0,2.3,112
2018-06-30 01:55:16,25.7,-4.5,30.2,0.0,2.3,112
2018-06-30 02:00:16,25.6,-4.5,30.1,0.1,2.3,112
2018-06-30 02:05:16,25.6,-4.4,30.0,0.1,2.2,112
2018-06-30 02:10:16,25.5,-4.6,30.1,0.1,2.1,112
2018-06-30 02:15:16,25.4,-4.6,30.0,0.1,2.1,112
2018-06-30 02:20:16,25.4,-4.9,30.3,0.1,2.2,111
2018-06-30 02:25:16,25.3,-4.9,30.2,0.1,2.3,111
2018-06-30 02:30:16,25.3,-5.1,30.4,0.1,2.3,112
2018-06-30 02:35:16,25.2,-5.4,30.5,0.1,2.3,111
2018-06-30 02:40:16,25.1,-5.6,30.7,0.1,2.3,111
2018-06-30 02:45:16,25.0,-5.9,30.9,0.1,2.3,112
2018-06-30 02:50:16,24.9,-5.8,30.7,0.1,2.3,111
2018-06-30 02:55:16,24.9,-6.0,30.9,0.1,2.3,112
2018-06-30 03:00:16,24.8,-6.2,30.9,0.1,2.3,111
2018-06-30 03:05:16,24.7,-6.4,31.1,0.2,2.3,112
2018-06-30 03:10:16,24.6,-6.4,31.0,0.2,2.3,113
2018-06-30 03:15:16,24.5,-6.3,30.8,0.2,2.3,111
2018-06-30 03:20:16,24.5,-6.5,31.0,0.2,2.3,112
2018-06-30 03:25:16,24.4,-6.4,30.8,0.2,2.3,112
2018-06-30 03:30:16,24.4,-6.6,31.0,0.3,2.3,112
2018-06-30 03:35:16,24.3,-6.6,30.9,0.4,2.3,112
2018-06-30 03:40:16,24.1,-6.8,30.9,0.5,2.3,112
2018-06-30 03:45:16,24.1,-6.8,30.8,0.6,2.3,112
2018-06-30 03:50:16,24.0,-7.0,31.0,0.9,2.3,111
2018-06-30 03:55:16,24.0,-7.0,31.0,1.3,2.3,112
2018-06-30 04:00:16,24.0,-7.3,31.2,1.9,2.3,111
2018-06-30 04:05:16,23.9,-7.3,31.2,3.0,2.3,112
2018-06-30 04:10:16,23.8,-7.5,31.3,4.7,2.3,111
2018-06-30 04:15:16,23.7,-7.6,31.2,7.3,2.3,111
2018-06-30 04:20:16,23.6,-7.6,31.2,10.8,2.2,112
2018-06-30 04:25:16,23.6,-7.6,31.1,15.2,2.2,111
2018-06-30 04:30:16,23.5,-7.6,31.1,19.5,2.2,111
2018-06-30 04:35:16,23.5,-7.8,31.3,23.3,2.3,111
2018-06-30 04:40:16,23.4,-7.7,31.1,26.1,2.3,112
2018-06-30 04:45:16,23.4,-7.8,31.1,28.0,2.3,111
2018-06-30 04:50:16,23.2,-7.8,31.0,29.3,2.3,111
2018-06-30 04:55:16,23.1,-7.9,31.1,30.1,2.3,111
2018-06-30 05:00:16,22.7,-7.9,30.6,30.6,2.3,112
2018-06-30 05:05:16,23.0,-8.0,31.0,31.0,2.3,111
2018-06-30 05:10:16,23.0,-8.1,31.1,31.3,2.3,112
2018-06-30 05:15:16,22.9,-8.0,31.0,31.5,2.3,111
2018-06-30 05:20:16,22.9,-8.1,31.0,31.7,2.3,112
2018-06-30 05:25:16,23.0,-7.9,30.9,31.8,2.3,111
2018-06-30 05:30:16,23.0,-8.0,31.1,31.9,2.3,112
2018-06-30 05:35:16,23.2,-7.8,31.0,32.0,2.3,111
2018-06-30 05:40:16,23.4,-7.7,31.1,32.0,2.3,111
2018-06-30 05:45:16,23.5,-7.9,31.4,32.0,2.3,112
2018-06-30 05:50:16,23.6,-7.8,31.4,32.0,2.3,111
2018-06-30 05:55:16,23.8,-7.9,31.6,32.1,2.2,111
2018-06-30 06:00:16,23.9,-7.8,31.7,32.1,2.2,112
2018-06-30 06:05:02,24.0,-8.1,32.1,32.1,2.3,73
2018-06-30 06:10:02,24.0,-7.8,31.9,32.1,2.3,111
2018-06-30 06:15:02,24.2,-7.7,31.9,32.1,2.3,112
2018-06-30 06:20:02,24.3,-8.0,32.3,32.2,2.3,111
2018-06-30 06:25:02,24.3,-7.8,32.2,32.2,2.3,112
2018-06-30 06:30:02,24.5,-7.4,32.0,32.2,2.3,111
2018-06-30 06:35:02,24.7,-7.5,32.2,32.2,2.3,111
2018-06-30 06:40:02,24.7,-7.6,32.3,32.2,2.3,111
2018-06-30 06:45:02,24.8,-7.5,32.3,32.2,2.3,112
2018-06-30 06:50:02,24.8,-7.5,32.3,32.2,2.3,111
2018-06-30 06:55:02,24.8,-7.7,32.5,32.2,2.3,111
2018-06-30 07:00:02,24.9,-7.6,32.4,32.2,2.3,112
2018-06-30 07:05:02,24.9,-7.6,32.5,32.2,2.3,111
2018-06-30 07:10:02,25.0,-7.4,32.4,32.2,2.3,111
2018-06-30 07:15:02,25.1,-7.0,32.1,32.2,2.3,112
2018-06-30 07:20:02,25.3,-6.9,32.2,32.2,2.3,112
2018-06-30 07:25:02,25.4,-6.8,32.3,32.2,2.3,112
2018-06-30 07:30:02,25.5,-6.9,32.4,32.2,2.3,111
2018-06-30 07:35:02,25.5,-6.8,32.3,32.2,2.3,112
2018-06-30 07:40:02,25.8,-6.0,31.8,32.3,2.3,112
2018-06-30 07:45:02,26.2,-5.9,32.1,32.3,2.1,112
2018-06-30 07:50:02,26.5,-5.8,32.3,32.3,2.3,111
2018-06-30 07:55:02,26.6,-6.2,32.8,32.3,2.3,112
2018-06-30 08:00:02,26.6,-6.3,32.9,32.3,2.3,112
2018-06-30 08:05:02,26.5,-5.6,32.1,32.3,2.3,111
2018-06-30 08:10:02,26.5,-5.7,32.2,32.3,2.3,112
2018-06-30 08:15:02,26.6,-5.3,31.9,32.3,2.3,111
2018-06-30 08:20:02,26.8,-5.5,32.2,32.3,2.3,112
2018-06-30 08:25:02,26.9,-5.3,32.2,32.3,2.3,111
2018-06-30 08:30:02,27.1,-4.5,31.5,32.3,2.4,112
2018-06-30 08:35:02,27.4,-4.6,31.9,32.3,2.3,112
2018-06-30 08:40:02,27.5,-4.4,32.0,32.3,2.3,111
2018-06-30 08:45:02,27.7,-4.0,31.8,32.3,2.3,112
2018-06-30 08:50:02,28.0,-3.9,31.9,32.3,2.3,112
2018-06-30 08:55:02,28.0,-3.8,31.8,32.3,2.3,111
2018-06-30 09:00:02,27.7,-3.9,31.6,32.3,2.3,112
2018-06-30 09:05:02,27.6,-3.6,31.3,32.3,2.3,113
2018-06-30 09:10:02,27.6,-3.6,31.2,32.3,2.3,111
2018-06-30 09:15:02,27.6,-2.6,30.2,32.4,2.3,112
2018-06-30 09:20:02,27.9,-2.3,30.2,32.4,2.3,112
2018-06-30 09:25:02,28.6,-1.7,30.3,32.4,2.3,111
2018-06-30 09:30:02,29.3,-1.4,30.7,32.4,2.3,112
2018-06-30 09:35:02,29.7,-1.5,31.3,32.4,2.3,111
2018-06-30 09:40:02,30.1,-0.8,30.9,32.4,2.3,112
2018-06-30 09:45:02,30.5,-0.5,31.0,32.5,2.3,112
2018-06-30 09:50:02,30.8,-0.7,31.5,32.5,2.3,112
2018-06-30 09:55:02,30.9,-0.6,31.5,32.5,2.3,112
2018-06-30 10:00:02,30.9,-0.3,31.2,32.5,2.3,111
2018-06-30 10:05:02,31.1,0.6,30.5,32.5,2.3,111
2018-06-30 10:10:02,31.3,0.5,30.8,32.5,2.3,112
2018-06-30 10:15:02,31.6,1.0,30.7,32.5,2.3,111
2018-06-30 10:20:02,31.9,1.1,30.8,32.5,2.3,111
2018-06-30 10:25:02,32.1,1.4,30.7,32.5,2.3,111
2018-06-30 10:30:02,32.3,2.0,30.3,32.5,2.3,112
2018-06-30 10:35:02,32.6,2.0,30.6,32.5,2.1,111
2018-06-30 10:40:02,32.9,2.3,30.6,32.5,1.7,111
2018-06-30 10:45:02,33.0,2.8,30.3,32.5,1.4,111
2018-06-30 10:50:02,33.1,3.0,30.1,32.6,1.2,111
2018-06-30 10:55:02,33.3,3.3,30.0,32.6,1.4,112
2018-06-30 11:00:02,33.6,3.6,30.0,32.6,1.2,111
2018-06-30 11:05:02,33.9,3.4,30.5,32.6,1.1,112
2018-06-30 11:10:02,34.0,3.6,30.3,32.6,1.1,111
2018-06-30 11:15:02,34.0,3.6,30.4,32.6,1.1,111
2018-06-30 11:20:02,33.5,4.2,29.3,32.6,1.2,112
2018-06-30 11:25:02,34.5,5.4,29.1,32.6,1.4,112
2018-06-30 11:30:02,34.8,5.0,29.9,32.6,1.5,111
2018-06-30 11:35:02,35.0,6.0,28.9,32.6,1.6,112
2018-06-30 11:40:02,35.5,6.2,29.3,32.6,1.8,111
2018-06-30 11:45:02,35.9,6.9,29.0,32.6,1.9,112
2018-06-30 11:50:02,36.4,6.1,30.4,32.6,2.0,111
2018-06-30 11:55:02,36.5,7.7,28.8,32.6,2.1,111
2018-06-30 12:00:02,37.1,7.2,29.8,32.6,2.4,112
2018-06-30 12:05:02,37.3,7.6,29.7,32.6,2.4,111
2018-06-30 12:10:02,37.2,7.7,29.5,32.6,2.4,111
2018-06-30 12:15:02,37.3,8.3,28.9,32.6,2.4,112
2018-06-30 12:20:02,37.6,9.3,28.3,32.6,2.5,112
2018-06-30 12:25:02,38.1,9.7,28.4,32.6,2.7,111
2018-06-30 12:30:02,38.3,10.1,28.3,32.6,2.7,112
2018-06-30 12:35:02,38.7,9.2,29.5,32.6,2.5,111
2018-06-30 12:40:02,38.7,10.9,27.8,32.6,2.5,111
2018-06-30 12:45:02,39.3,11.1,28.2,32.6,2.4,111
2018-06-30 12:50:02,38.9,10.6,28.3,32.6,2.4,112
2018-06-30 12:55:02,39.5,11.1,28.4,32.6,2.4,112
2018-06-30 13:00:02,39.7,11.0,28.7,32.6,2.4,111
2018-06-30 13:05:02,39.7,11.2,28.4,32.6,2.4,111
2018-06-30 13:10:02,39.7,11.2,28.5,32.6,2.4,111
2018-06-30 13:15:02,39.6,12.1,27.5,32.6,2.4,111
2018-06-30 13:20:02,39.9,11.9,28.0,32.6,2.4,112
2018-06-30 13:25:02,40.2,13.1,27.0,32.6,2.4,111
2018-06-30 13:30:02,40.5,13.6,26.9,32.6,2.4,111
2018-06-30 13:35:02,40.9,13.3,27.5,32.6,2.4,112
2018-06-30 13:40:02,40.9,13.4,27.5,32.6,2.4,111
2018-06-30 13:45:02,41.0,14.3,26.7,32.6,2.4,111
2018-06-30 13:50:02,41.8,14.5,27.2,32.6,2.4,111
2018-06-30 13:55:02,42.1,14.3,27.8,32.6,2.4,111
2018-06-30 14:00:02,42.0,14.0,28.0,32.6,2.4,112
2018-06-30 14:05:02,41.9,14.8,27.1,32.6,2.4,111
2018-06-30 14:10:02,42.1,14.2,27.9,32.6,2.4,111
2018-06-30 14:15:02,42.3,15.9,26.4,32.6,2.4,112
2018-06-30 14:20:02,43.1,15.7,27.4,32.6,2.4,111
2018-06-30 14:25:02,43.4,15.8,27.6,32.6,2.3,111
2018-06-30 14:30:02,43.0,15.0,28.1,32.6,2.3,111
2018-06-30 14:35:02,42.7,16.2,26.5,32.6,2.4,112
2018-06-30 14:40:02,42.9,15.3,27.7,32.6,2.3,111
2018-06-30 14:45:02,43.2,16.1,27.1,32.6,2.2,111
2018-06-30 14:50:02,43.1,15.9,27.2,32.6,2.3,111
2018-06-30 14:55:02,43.0,16.0,27.0,32.6,2.3,112
2018-06-30 15:00:02,42.9,15.7,27.2,32.6,2.3,111
2018-06-30 15:05:02,42.5,16.3,26.2,32.6,2.2,112
2018-06-30 15:10:02,43.0,16.5,26.5,32.6,2.3,111
2018-06-30 15:15:02,43.4,16.9,26.5,32.6,2.4,112
2018-06-30 15:20:02,43.8,16.2,27.6,32.6,2.4,111
2018-06-30 15:25:02,43.9,16.8,27.1,32.6,2.4,112
2018-06-30 15:30:02,43.6,16.5,27.1,32.6,2.3,111
2018-06-30 15:35:02,43.7,17.1,26.7,32.6,2.3,111
2018-06-30 15:40:02,44.0,17.6,26.4,32.6,2.1,112
2018-06-30 15:45:02,44.7,17.9,26.8,32.6,2.3,111
2018-06-30 15:50:02,45.2,16.3,28.9,32.6,2.4,111
2018-06-30 15:55:02,44.7,16.8,27.9,32.6,2.4,112
2018-06-30 16:00:02,44.5,16.1,28.4,32.6,2.4,111
2018-06-30 16:05:02,44.0,16.8,27.2,32.6,2.4,111
2018-06-30 16:10:02,43.7,16.8,26.9,32.6,2.4,112
2018-06-30 16:15:02,43.5,15.6,27.9,32.6,2.4,111
2018-06-30 16:20:02,42.8,15.9,26.9,32.6,2.3,111
2018-06-30 16:25:02,42.6,16.8,25.8,32.6,2.1,112
2018-06-30 16:30:02,43.3,16.8,26.5,32.6,2.2,111
2018-06-30 16:35:02,43.8,17.1,26.7,32.6,2.4,112
2018-06-30 16:40:02,44.5,16.3,28.2,32.6,2.4,111
2018-06-30 16:45:02,43.9,15.9,28.1,32.6,2.4,112
2018-06-30 16:50:02,43.3,15.6,27.7,32.6,2.4,111
2018-06-30 16:55:02,42.9,15.7,27.2,32.6,2.4,112
2018-06-30 17:00:03,42.7,14.8,27.9,32.6,2.3,111
2018-06-30 17:05:03,42.1,14.7,27.4,32.6,2.2,112
2018-06-30 17:10:03,41.9,14.8,27.1,32.6,2.4,111
2018-06-30 17:15:03,42.1,15.3,26.8,32.6,2.4,111
2018-06-30 17:20:03,42.7,15.0,27.7,32.6,2.2,112
2018-06-30 17:25:03,42.9,15.1,27.8,32.6,2.1,111
2018-06-30 17:30:03,43.4,15.0,28.5,32.6,2.3,111
2018-06-30 17:35:03,43.2,13.8,29.4,32.6,2.4,112
2018-06-30 17:40:03,42.6,14.4,28.2,32.6,2.3,111
2018-06-30 17:45:03,41.8,13.8,28.0,32.6,2.2,111
2018-06-30 17:50:03,42.5,13.5,28.9,32.6,2.0,112
2018-06-30 17:55:03,42.5,14.1,28.5,32.6,2.0,111
2018-06-30 18:00:03,42.9,13.1,29.8,32.6,2.2,111
2018-06-30 18:05:03,42.3,12.4,29.9,32.6,2.1,112
2018-06-30 18:10:03,41.3,11.6,29.8,32.6,2.3,111
2018-06-30 18:15:03,40.4,12.0,28.3,32.6,2.3,112
2018-06-30 18:20:03,40.2,12.0,28.2,32.6,2.4,111
2018-06-30 18:25:03,39.9,11.3,28.6,32.6,2.4,111
2018-06-30 18:30:03,39.6,11.4,28.2,32.6,2.4,112
2018-06-30 18:35:03,39.6,12.3,27.3,32.6,2.4,111
2018-06-30 18:40:03,39.9,10.9,28.9,32.6,2.4,112
2018-06-30 18:45:03,39.3,10.2,29.1,32.6,2.4,111
2018-06-30 18:50:03,38.7,10.2,28.5,32.6,2.4,112
2018-06-30 18:55:03,38.3,9.5,28.9,32.6,2.4,112
2018-06-30 19:00:03,37.9,9.5,28.4,32.6,2.4,111
2018-06-30 19:05:03,37.7,9.2,28.5,32.6,2.4,112
2018-06-30 19:10:03,37.5,9.1,28.5,32.6,2.4,111
2018-06-30 19:15:03,37.4,8.6,28.7,32.6,2.4,112
2018-06-30 19:20:03,37.1,8.5,28.6,32.6,2.4,111
2018-06-30 19:25:03,36.8,8.3,28.5,32.6,2.3,112
2018-06-30 19:30:03,36.5,8.2,28.2,32.6,2.3,111
2018-06-30 19:35:03,36.2,8.0,28.2,32.6,2.3,111
2018-06-30 19:40:03,35.9,7.7,28.2,32.5,2.7,112
2018-06-30 19:45:03,35.6,7.4,28.2,32.5,2.7,112
2018-06-30 19:50:03,35.3,7.0,28.3,32.5,2.7,111
2018-06-30 19:55:03,35.0,6.5,28.5,32.5,2.5,111
2018-06-30 20:00:03,34.7,6.1,28.5,32.5,2.3,112
2018-06-30 20:05:03,34.3,5.9,28.4,32.5,2.3,111
2018-06-30 20:10:03,34.1,5.7,28.4,32.5,2.3,112
2018-06-30 20:15:03,33.9,5.5,28.4,32.5,2.3,111
2018-06-30 20:20:03,33.7,4.9,28.8,32.5,2.1,112
2018-06-30 20:25:03,33.4,4.7,28.7,32.4,1.9,112
2018-06-30 20:30:03,33.1,4.3,28.8,32.4,1.9,111
2018-06-30 20:35:03,32.8,4.3,28.5,32.4,1.7,112
2018-06-30 20:40:03,32.6,3.8,28.8,32.3,1.7,112
2018-06-30 20:45:03,32.4,3.5,28.9,32.3,1.6,112
2018-06-30 20:50:03,32.1,3.3,28.8,32.2,1.5,110
2018-06-30 20:55:03,31.8,3.0,28.8,32.1,1.3,112
2018-06-30 21:00:03,31.5,2.7,28.8,32.0,1.2,111
2018-06-30 21:05:03,31.2,2.5,28.6,31.9,1.2,111
2018-06-30 21:10:03,30.9,2.2,28.7,31.5,1.4,111
2018-06-30 21:15:03,30.6,2.1,28.4,31.1,1.5,111
2018-06-30 21:20:03,30.2,2.0,28.2,30.6,1.9,111
2018-06-30 21:25:03,30.0,2.0,27.9,30.0,2.2,111
2018-06-30 21:30:03,29.8,2.0,27.8,29.2,2.3,111
2018-06-30 21:35:03,29.1,2.0,27.1,28.1,2.3,111
2018-06-30 21:40:03,29.6,2.0,27.6,26.4,2.3,111
2018-06-30 21:45:03,29.5,1.9,27.6,24.0,2.3,111
2018-06-30 21:50:03,29.4,1.9,27.5,20.5,2.3,111
2018-06-30 21:55:03,29.4,1.9,27.6,16.2,2.2,111
2018-06-30 22:00:03,29.5,2.0,27.5,11.9,2.2,111
2018-06-30 22:05:03,29.5,1.9,27.6,8.2,2.3,111
2018-06-30 22:10:03,29.4,1.9,27.5,5.4,2.3,111
2018-06-30 22:15:03,28.7,1.9,26.9,3.5,2.3,111
2018-06-30 22:20:03,29.2,1.8,27.4,2.2,2.3,111
2018-06-30 22:25:03,29.1,1.9,27.2,1.3,2.3,111
2018-06-30 22:30:03,29.0,2.0,27.0,0.8,2.3,111
2018-06-30 22:35:03,28.9,1.9,27.0,0.5,2.3,111
2018-06-30 22:40:03,28.3,1.9,26.4,0.3,2.3,111
2018-06-30 22:45:03,28.7,1.9,26.9,0.2,2.3,111
2018-06-30 22:50:03,28.7,1.7,26.9,0.1,2.3,111
2018-06-30 22:55:03,28.6,1.7,26.9,0.0,2.3,111
2018-06-30 23:00:03,28.6,1.8,26.8,0.0,2.3,111
2018-06-30 23:05:03,28.6,1.7,26.9,0.0,2.3,111
2018-06-30 23:10:03,28.6,1.6,26.9,0.0,2.3,111
2018-06-30 23:15:03,28.5,1.6,26.9,0.0,2.3,111
2018-06-30 23:20:03,28.5,1.7,26.8,0.0,2.3,111
2018-06-30 23:25:03,28.5,1.6,26.9,0.0,2.3,111
2018-06-30 23:30:03,28.5,1.8,26.8,0.0,2.3,112
2018-06-30 23:35:03,28.5,1.9,26.6,0.0,2.3,111
2018-06-30 23:40:03,28.5,1.8,26.7,0.0,2.3,111
2018-06-30 23:45:03,28.5,1.8,26.7,0.0,2.3,111
2018-06-30 23:50:03,27.9,1.8,26.1,0.0,2.3,111
2018-06-30 23:55:03,28.4,1.8,26.6,0.0,2.3,111
